This is the latest recevied weather packets stored in our database for station/object OK2KJT-11. If no packets are shown the sender has not sent any weather packets the latest 10 day(s).
| Time | Temp. | Humidity | Pressure | Rain* | Wind** | Luminosity | Snow |
|---|---|---|---|---|---|---|---|
| 1788584897 | 13.33° C | 83% | 1018.8 hPa | - | - | - | - |
| 1788584297 | 13.33° C | 81% | 1018.8 hPa | - | - | - | - |
| 1788583709 | 13.33° C | 82% | 1018.6 hPa | - | - | - | - |
| 1788583097 | 13.89° C | 80% | 1018.4 hPa | - | - | - | - |
| 1788582497 | 13.89° C | 78% | 1018 hPa | - | - | - | - |
| 1788581897 | 14.44° C | 77% | 1018 hPa | - | - | - | - |
| 1788581297 | 14.44° C | 74% | 1017.9 hPa | - | - | - | - |
| 1788580698 | 14.44° C | 72% | 1017.7 hPa | - | - | - | - |
| 1788580098 | 14.44° C | 74% | 1017.3 hPa | - | - | - | - |
| 1788579499 | 14.44° C | 74% | 1017.4 hPa | - | - | - | - |
| 1788578899 | 13.89° C | 76% | 1017.1 hPa | - | - | - | - |
| 1788578297 | 13.89° C | 76% | 1017 hPa | - | - | - | - |
| 1788577698 | 13.89° C | 75% | 1016.8 hPa | - | - | - | - |
| 1788577097 | 14.44° C | 76% | 1016.8 hPa | - | - | - | - |
| 1788576498 | 14.44° C | 74% | 1016.5 hPa | - | - | - | - |
| 1788575898 | 14.44° C | 74% | 1016.6 hPa | - | - | - | - |
| 1788575297 | 15° C | 73% | 1016.8 hPa | - | - | - | - |
| 1788574697 | 15° C | 73% | 1016.8 hPa | - | - | - | - |
| 1788574098 | 15.56° C | 73% | 1016.8 hPa | - | - | - | - |
| 1788573497 | 15.56° C | 72% | 1016.6 hPa | - | - | - | - |
| 1788572896 | 15.56° C | 72% | 1016.1 hPa | - | - | - | - |
| 1788572298 | 16.11° C | 72% | 1016.1 hPa | - | - | - | - |
| 1788571698 | 16.11° C | 71% | 1015.8 hPa | - | - | - | - |
| 1788571097 | 16.67° C | 69% | 1015.7 hPa | - | - | - | - |
| 1788570497 | 17.22° C | 68% | 1015.7 hPa | - | - | - | - |
* Rain since midnight (hover to see other rain measurements)
** Current wind speed in m/s (hover to see current wind gust speed)